Regional Weather Roundup
Issued by NWS

Home | Current Version | Previous Version | Graphics & Text | Print | Product List | Glossary On
Versions: 1 2 3 4 5 6 7 8 9 10 11 12 13 14 15 16 17 18 19 20 21 22 23 24 25 26 27 28 29 30 31 32 33 34 35 36 37 38 39 40 41 42 43 44 45 46 47 48 49 50
000
ASUS43 KMKX 172120
RWRWI

WISCONSIN REGIONAL WEATHER ROUNDUP
NATIONAL WEATHER SERVICE MILWAUKEE/SULLIVAN WI
400 PM CDT FRI APR 17 2015

NOTE: "FAIR" INDICATES FEW OR NO CLOUDS BELOW 12,000 FEET WITH NO
SIGNIFICANT WEATHER AND/OR OBSTRUCTIONS TO VISIBILITY.

WIZ001-002-006>008-014>016-023>028-172200-
NORTHWEST WISCONSIN

CITY           SKY/WX    TMP DP  RH WIND       PRES   REMARKS
SUPERIOR ARPT  SUNNY     73  28  18 W10       29.96F
ASHLAND        SUNNY     71  33  24 NE9       29.99F
HAYWARD        SUNNY     72  25  17 VRB7      29.99F
SIREN          SUNNY     72  20  13 W3        30.01F
CUMBERLAND     SUNNY     70  30  23 NW6       30.00F
RICE LAKE      SUNNY     72  33  23 W5        30.02F
CHETEK         SUNNY     73  37  27 NW8       30.00F
LADYSMITH      SUNNY     73  37  26 W9        30.00F
EAU CLAIRE     MOSUNNY   76  42  29 W12       29.99F
MENOMONIE      SUNNY     74  39  27 W9        30.01S
NEW RICHMOND   SUNNY     73  29  20 W7        30.02F
OSCEOLA        SUNNY     73  28  19 W8        30.04F
$$

WIZ003>005-009-010-017-018-172200-
NORTH CENTRAL WISCONSIN

CITY           SKY/WX    TMP DP  RH WIND       PRES   REMARKS
MANITOWISH WTR SUNNY     71  30  22 W6        29.97F
ARBOR VITAE    SUNNY     72  33  23 NW10      29.98S
WOODRUFF       SUNNY     72  33  23 NW10      29.98S
RHINELANDER    MOSUNNY   73  37  27 W12G22    29.98F
EAGLE RIVER    SUNNY     71  29  21 W12G18    29.97F
LAND O LAKES   SUNNY     72  26  18 W5        29.98F
PHILLIPS       SUNNY     72  36  27 W6G17     29.98F
TOMAHAWK       SUNNY     73  36  25 CALM      29.97F
MEDFORD        SUNNY     71  44  37 W7        29.99F
MERRILL        SUNNY     75  42  30 W8        29.96F
$$

WIZ029-030-035-036-043>047-172200-
CENTRAL WISCONSIN

CITY           SKY/WX    TMP DP  RH WIND       PRES   REMARKS
WAUSAU         MOSUNNY   75  41  29 W15G21    29.96F
MOSINEE        MOSUNNY   73  41  31 W8        30.00F
MARSHFIELD     MOSUNNY   73  41  31 W6G17     29.99F
STEVENS POINT  MOSUNNY   73  42  32 W9        29.99S
WAUPACA        PTSUNNY   78  39  25 S7        29.97F
WAUTOMA        MOSUNNY   76  39  26 VRB7      29.98F
WISC RAPIDS    MOSUNNY   76  37  24 W8        29.99F
CAMP DOUGLAS   MOSUNNY   77  43  29 W8        29.98F
$$

WIZ011>013-019>022-031-037>040-048>050-172200-
NORTHEAST WISCONSIN

CITY           SKY/WX    TMP DP  RH WIND       PRES   REMARKS
ANTIGO         PTSUNNY   73  42  33 SW10G16   29.97F
SHAWANO        PTSUNNY   74  41  30 S5        29.96F
OCONTO         SUNNY     64  42  45 SE12G17   29.99F
STURGEON BAY   SUNNY     59  37  44 E8        30.03F
GREEN BAY      SUNNY     70  45  40 SE15      29.98F
MANITOWOC      PTSUNNY   62  41  46 SE10      30.02F
APPLETON       MOSUNNY   72  37  28 VRB5      29.99F
CLINTONVILLE   MOSUNNY   75  39  27 SW7       29.96F
OSHKOSH        PTSUNNY   71  42  35 E7        29.98F
$$

WIZ032>034-041-042-053>061-172200-
SOUTHWEST WISCONSIN

CITY           SKY/WX    TMP DP  RH WIND       PRES   REMARKS
LA CROSSE      SUNNY     80  43  26 NW8       29.98F
SPARTA         MOSUNNY   78  40  26 W14G20    30.00F
VIROQUA        PTSUNNY   76  40  27 NW12      30.01F
BOSCOBEL       MOSUNNY   80  44  27 S8        29.99F
PRAIRIE DU CHI MOSUNNY   79  40  25 W8        29.98F
PLATTEVILLE    PTSUNNY   78  45  31 SW9       30.00F
$$

WIZ056-057-062-063-064-067-068-172200-
SOUTH CENTRAL WISCONSIN

CITY           SKY/WX    TMP DP  RH WIND       PRES   REMARKS
REEDSBURG      CLOUDY    74  44  33 SW5       29.98F
BARABOO/DELLS  PTSUNNY   76  39  26 NW7       29.98F
LONE ROCK      MOSUNNY   78  44  29 W12G17    29.98F
MINERAL POINT  MOSUNNY   79  37  22 SW9       30.01S
MADISON        MOSUNNY   78  43  28 SW8       29.98F
MIDDLETON      PTSUNNY   79  37  21 W6        29.99F
WATERTOWN      MOSUNNY   77  47  34 NW3       29.98F
MONROE         MOSUNNY   77  45  31 SW12      30.00S
JANESVILLE     MOSUNNY   81  41  24 W14       29.98F
$$

WIZ051-052-058>065-066-070>072-172200-
SOUTHEAST WISCONSIN

CITY           SKY/WX    TMP DP  RH WIND       PRES   REMARKS
MILWAUKEE      MOSUNNY   64  39  39 E7        30.01F
WAUKESHA       PTSUNNY   66  45  45 E12       30.01F
MILWAUKEE/TIMM SUNNY     66  36  32 E5        30.02F
RACINE         MOSUNNY   64  42  44 SE8       30.02F
BURLINGTON     PTSUNNY   74  43  33 W6        29.99F
KENOSHA        MOSUNNY   69  43  38 E13       30.00F
FOND DU LAC    PTSUNNY   76  43  30 NE9       29.98F
SHEBOYGAN      MOSUNNY   63  44  50 NE10      30.02F
WEST BEND      PTSUNNY   70  37  30 E8        30.00F
JUNEAU         PTSUNNY   74  45  35 CALM      29.99F
$$

LSZ147-162-172200-
LAKE SUPERIOR

STATION/POSITION TIME  TEMP    WIND        PRES    WAVE
                       AIR SEA DIR/SP/G            HT/PER
                 (UTC) (F)     (DEG/KT/KT) (MB)    (FT/S)
DEVILS ISLAND    2100   61     200/  6/  9 1014.9F
PORT WING        2000   62      40/  4/  4 1015.9
SAXON HARBOR     2040   54      CALM  /  2 1015.9F
$$

LMZ867-665-643>646-172200-
LAKE MICHIGAN

STATION/POSITION TIME  TEMP    WIND        PRES    WAVE
                       AIR SEA DIR/SP/G            HT/PER
                 (UTC) (F)     (DEG/KT/KT) (MB)    (FT/S)
CHAMBERS ISLAND  2000   57      70/ 10/ 12 1016.3F
NORTHPORT PIER   2000   47     140/  9/ 10 1016.6F
SISTER BAY       2002   66     140/ 10/ 13   N/A
KEWAUNEE LAKESHO 2100   50     170/  2/  4 1015.8F
SHEBOYGAN LAKESH 2100   43      30/  8/  8 1017.5F
PORT WASHINGTON  2040   49      60/  4/  6 1017.6F
MILWAUKEE LAKESH 2100   50      40/  8/  8   N/A
KENOSHA   LAKESH 2100   54     120/  4/  7 1015.9F
$$

TC  - TEMPERATURE IN CELSIUS
VSB - VISIBILITY IN STATUTE MILES
WCI - WIND CHILL INDEX
HX  - HEAT INDEX




USA.gov is the U.S. government's official web portal to all federal, state and local government web resources and services.